Current Version              Previous Version:    01  02  03  04  05  06  07  08  09  10  11  12  13  14  15  16  17  18  19  20  21  22  23  24  25  26  27  28  29  30  
   31  32  33  34  35  36  37  38  39  40  41  42  43  44  45  46  47  48  49  50  51  52  53  54  55  56  57  58  59  60  

[Printable]
354
ASUS44 KLUB 221001
RWRTX
WEST TEXAS WEATHER ROUNDUP
NATIONAL WEATHER SERVICE LUBBOCK TX
400 AM CST MON DEC 22 2014

NOTE: "FAIR" INDICATES FEW OR NO CLOUDS BELOW 12,000 FEET WITH NO
SIGNIFICANT WEATHER AND/OR OBSTRUCTIONS TO VISIBILITY.

TXZ004-006>008-010-012-014-016-OKZ002-221100-
TEXAS PANHANDLE/OKLAHOMA PANHANDLE

CITY           SKY/WX    TMP DP  RH WIND       PRES   REMARKS
AMARILLO       PTCLDY    43  28  55 NW13      29.64R
BORGER         MOCLDY    45  30  55 NW8       29.62R
CANADIAN         N/A     37  34  87 CALM      29.57F
DALHART        CLOUDY    43  33  68 N15       29.66S
DUMAS          CLOUDY    42  32  69 N14       29.63F
GUYMON         CLOUDY    50  35  56 NW18G28   29.59R
HEREFORD       CLEAR     38  30  71 CALM      29.65S
$$

TXZ026-029-035-045-048-221100-
SOUTHERN PANHANDLE/SOUTH PLAINS/ROLLING PLAINS

CITY           SKY/WX    TMP DP  RH WIND       PRES   REMARKS
CHILDRESS      PTCLDY    40  32  73 NW13      29.54R WCI  32
LUBBOCK        CLEAR     50  31  48 W15       29.62S
$$

TXZ052-054-060>062-072-078-127-140-154-169-221100-
PERMIAN BASIN/CONCHO VALLEY/BIG COUNTRY/EDWARDS PLATEAU

CITY           SKY/WX    TMP DP  RH WIND       PRES   REMARKS
ABILENE        PTCLDY    50  41  71 SW14      29.61F
JUNCTION       CLOUDY    54  50  86 W7        29.75F
MIDLAND        CLOUDY    51  28  41 W10       29.71F
ODESSA         MOCLDY    52  27  38 W12       29.73F
SAN ANGELO     PTCLDY    50  45  83 SW12      29.69F
WINK           CLOUDY    57  27  31 W15       29.73S
$$

TXZ055-058-074-075-080-082-221100-
FAR WEST/SOUTHWEST MOUNTAINS/TRANS PECOS

CITY           SKY/WX    TMP DP  RH WIND       PRES   REMARKS
ALPINE         CLOUDY    56  26  31 W12G18    29.91S
DRYDEN           N/A     43  43 100 CALM      29.74F
EL PASO        MOCLDY    56  30  37 W22G31    29.91S
FORT STOCKTON  MOCLDY    53  27  36 SW12      29.76R
MARFA          CLOUDY    52  25  35 W15       29.91R
$$

TXZ014-016-019-021>030-083-221100
TEXAS TECH WEST TEXAS MESONET/TEXAS PANHANDLE/NORTHERN SOUTH PLAINS

CITY           SKY/WX    TMP DP  RH WIND       PRES   REMARKS
ABERNATHY 5ENE   N/A     47  32  54 W13       29.63S
AMARILLO 9NNE    N/A     31  25  76 N6        29.65R WCI  26
AMARILLO 7SSE    N/A     44  29  54 NW12      29.64R
AMHERST 1NE      N/A     48  31  52 W13       29.65R
BOOTLEG 11WNW    N/A     48  29  48 W17       29.65S
CANADIAN 6E      N/A     36  34  92 NW10      29.55R WCI  28
CAPROCK CYN SP   N/A     47  30  51 W15       29.57R
CHILDRESS 2NNE   N/A     37  35  93 NW12      29.52F WCI  29
CLARENDON 2WSW   N/A     45  29  53 NW16      29.57R
CLAUDE 12SW      N/A     42  29  61 NW15      29.60R
DIMMITT 2NE      N/A     43  29  58 W9        29.65R
FLOYDADA 2NNE    N/A     44  30  58 W14       29.60R
FRIONA 2NE       N/A     40  28  62 S3        29.65R
GOODLETT 3W      N/A     40  37  91 W6        29.51F
HART 3N          N/A     36  29  77 W10       29.64R WCI  28
HEREFORD 2NW     N/A     37  26  65 W1        29.64S
MCLEAN 1E        N/A     41  32  71 NW17      29.53S
MEMPHIS 1NE      N/A     36  33  90 NW3       29.53S
MULESHOE 2SSW    N/A     46  31  56 W12       29.66S
OLTON 6S         N/A     49  31  48 W15       29.63S
PALO DURO SP     N/A     45  28  52 W14       29.63R
PAMPA 2E         N/A     42  28  58 W14       29.58S
PLAINVIEW 1S     N/A     43  32  65 W13       29.62R
SILVERTON 7ESE   N/A     40  30  67 W15       29.59S WCI  32
TULIA 2ENE       N/A     40  31  68 W14       29.62R WCI  33
TURKEY 2WSW      N/A     51  31  46 NW13      29.55R
UMBARGER 3NNE    N/A     38  28  67 W9        29.64R WCI  31
$$

TXZ033>036-039>041-045>048-221100
TEXAS TECH WEST TEXAS MESONET/SOUTH PLAINS

CITY           SKY/WX    TMP DP  RH WIND       PRES   REMARKS
AIKEN 3WSW       N/A     43  31  63 W12       29.63R
ANDREWS 2NE      N/A     53  26  35 W10       29.72S
ANTON 6SSW       N/A     51  32  48 W20       29.63F
BROWNFIELD 2S    N/A     46  29  51 W8        29.67R
DENVR CTY 7WNW   N/A     45  28  52 SW13      29.69F
GAIL 2ESE        N/A     51  30  44 W12       29.63S
LAMESA 2SE       N/A     51  29  43 W14       29.67R
LEVELLAND 4S     N/A     54  29  38 W22       29.65S
LUBBOCK 3WNW     N/A     52  30  42 W14       29.64S
MORTON 1ENE      N/A     49  30  47 W17       29.66F
ODONNELL 1N      N/A     49  29  46 W12       29.65S
PLAINS 3N        N/A     55  30  38 W21       29.68F
RALLS 1SE        N/A     51  31  46 W16       29.61S
REESE CENTER     N/A     52  30  43 W18       29.63S
SEAGRAVES 1SW    N/A     47  30  51 W12       29.69S
SEMINOLE 2NNE    N/A     54  28  37 W13       29.70S
SLATON 2NE       N/A     55  30  39 W18       29.62S
SNYDER 3E        N/A     52  30  43 W10       29.62F
SUNDOWN 8SW      N/A     55  30  38 W18       29.66S
TAHOKA 3NNE      N/A     56  31  38 W18       29.63S
WOLFFORTH 6SSW   N/A     56  31  38 W24       29.63F
$$

TXZ031-032-036>038-042>044-221100-
TEXAS TECH WEST TEXAS MESONET/ROLLING PLAINS

CITY           SKY/WX    TMP DP  RH WIND       PRES   REMARKS
ASPERMONT 3NE    N/A     54  31  42 SW13      29.58R
FLUVANNA 3WNW    N/A     46  29  51 SW13      29.62S
GRAHAM 5SSW      N/A     53  31  41 W16       29.62R
GUTHRIE 10WSW    N/A     52  31  44 SW3       29.55R
HASKELL 1NW      N/A     46  34  62 SW9       29.55S
JAYTON 1SSE      N/A     49  31  50 SW3       29.58R
KNOX CITY 3NW    N/A     48  31  52 SW8       29.55R
LK A HENRY 1NW   N/A     52  31  45 W12       29.60S
NORTHFIELD 1S    N/A     46  32  57 W9        29.55R
ODELL 4ENE       N/A     39  38  97 SW3       29.51F
POST 1NE         N/A     57  32  37 W20       29.59S
SEYMOUR 3NW      N/A     46  38  74 SW3       29.53S
SPUR 1W          N/A     53  30  40 W8        29.57R
WHITE RVR 6NE    N/A     54  31  40 W26       29.57S
$$

TXZ052-054-060>062-072-078-127-140-154-169-221100-
TEXAS TECH WEST TEXAS MESONET/PERMIAN BASIN/
CONCHO VALLEY/BIG COUNTRY/EDWARDS PLATEAU

CITY           SKY/WX    TMP DP  RH WIND       PRES   REMARKS
COYANOSA 2N      N/A     56  28  34 W7        29.76R
JUNCTION 1SSW    N/A     54  51  89 S5        29.75F
MERTZON 3NNE     N/A     47  44  90 S12       29.72F
SAN ANGELO 7NW   N/A     48  43  82 SW8       29.69F
STRLNG CT 4WSW   N/A     48  35  60 W2        29.69F
ST LAWRNCE 5SW   N/A     48  26  43 SW12      29.71S
SWEETWATR 11SW   N/A     50  33  51 SW9       29.65F
WALL 1E          N/A     51  45  80 S17       29.69F
$$

TXZ055-058-074-075-080-082-221100-
TEXAS TECH WEST TEXAS MESONET/FAR WEST/SOUTHWEST MOUNTAINS/TRANS PECOS

CITY           SKY/WX    TMP DP  RH WIND       PRES   REMARKS
PRSMN GAP BBNP   N/A     59  26  28 SE13      29.83S
$$